Location: Bernay
(48.6766°N, 2.9386°E)
Time: 00:36:20
(UTC+00:00)

SJ 16-02 - Pass Details

Date: 22 April 2026
Orbit: 582 x 592 km, 75.0° (Epoch: 19 May)

Event Time Altitude Azimuth Distance (km) Brightness Sun altitude
Rises 21:34:22 0° 342° (NNW) 2,824 6.0 -22.2°
Reaches altitude 10° 21:36:40 10° 348° (NNW) 1,918 4.8 -22.5°
Maximum altitude 21:40:49 49° 64° (ENE) 759 1.7 -22.8°
Enters shadow 21:40:50 49° 65° (ENE) 759 1.7 -22.8°
